RH
69 71 73 73 74 74 74 75 76 76 76 77 78 79 77 76 78 77 75 75 75 74 72 70 67 65 62 62 63 62 67 69 67 70 74 69 64 59 54 54 52 53 53 50 54 57 58 59 60 61 63 63 63 62 67 71 68 61 59 65 63 61 65 66 67 66 67 69 69 70 71 72 73 73 70 67 66 67 66 61 59 57 57 56 55 60 58 58 61 64 64 60 58 53 50 48 47
68 72 73 73 73 75 74 75 81 83 80 78 79 78 76 76 77 76 74 73 71 70 69 67 64 63 62 62 62 59 62 66 64 66 70 67 62 56 52 54 51 51 50 47 51 54 55 55 54 55 57 58 57 57 62 67 70 66 58 61 64 60 62 65 66 65 65 68 69 70 71 75 76 74 72 70 68 66 68 65 63 60 60 60 57 60 60 59 62 64 64 60 58 55 51 50 48
67 72 73 72 73 74 75 76 82 84 81 80 80 77 77 77 76 74 73 73 70 69 67 65 65 65 64 63 61 58 58 61 61 61 63 63 57 52 51 53 50 50 49 46 48 51 51 51 50 49 50 53 53 54 56 61 69 73 62 59 65 62 61 64 66 67 67 68 69 71 70 75 77 74 74 74 71 66 67 68 65 64 64 64 63 66 63 60 62 64 65 61 59 56 53 50 49
65 68 70 72 72 74 78 80 81 83 82 82 79 76 78 78 76 75 73 73 73 69 66 64 64 64 63 63 62 59 58 58 59 57 58 60 54 50 50 50 49 49 48 47 47 47 47 48 47 46 47 50 50 52 53 54 61 72 69 60 63 65 63 63 66 68 68 69 70 73 72 75 76 74 77 76 75 70 67 68 67 66 66 65 66 74 69 62 62 63 65 63 61 58 53 50 49
64 67 68 70 73 72 78 81 81 82 83 83 78 76 78 77 77 76 73 73 72 68 66 65 64 62 60 60 60 60 60 60 60 56 53 56 54 53 52 50 49 49 49 48 48 46 44 46 46 46 48 49 50 50 52 54 56 65 69 61 60 67 68 64 65 68 69 70 71 73 74 76 76 76 79 79 79 76 71 69 68 68 69 66 66 73 74 68 65 65 66 64 61 58 53 51 49
64 66 67 69 70 70 75 79 79 81 83 83 78 77 78 78 79 78 73 71 71 68 66 65 64 62 60 60 60 58 60 60 60 54 51 54 54 55 53 51 49 49 49 48 49 45 43 46 47 49 50 51 50 52 53 55 57 60 65 62 58 63 68 68 67 68 69 70 69 70 73 75 75 76 79 80 80 80 77 72 71 71 71 68 68 73 77 75 69 69 70 66 62 56 54 52 50
62 65 64 66 68 69 75 77 78 81 81 82 80 78 80 79 79 79 76 73 73 73 69 66 63 64 64 61 60 59 58 57 56 51 52 55 53 52 52 50 49 49 49 49 48 45 45 47 49 52 52 52 52 53 55 56 58 58 62 65 62 62 63 66 69 72 71 69 70 69 71 74 73 76 79 80 80 81 81 78 75 74 73 69 71 77 79 76 67 63 67 71 66 57 55 54 51
61 62 61 64 67 68 73 74 77 81 79 81 81 80 80 79 79 81 79 76 75 76 74 69 66 67 67 61 60 59 55 54 52 50 51 52 49 48 48 47 48 49 49 49 48 46 48 50 50 53 53 54 54 55 57 57 58 57 60 64 67 67 64 62 65 71 74 72 75 76 75 78 78 79 79 80 82 82 81 81 80 77 77 73 74 78 78 76 69 60 61 70 71 62 57 54 51
61 61 60 63 67 67 68 68 73 80 80 79 80 80 78 78 80 81 79 75 75 75 73 71 69 69 68 64 63 58 52 51 51 52 52 50 48 46 46 46 47 48 49 50 49 48 49 49 49 52 54 53 54 56 58 58 58 57 58 62 64 65 62 61 61 64 71 73 78 82 81 82 83 82 80 82 84 82 81 81 83 81 80 80 79 77 77 76 71 64 62 67 70 69 63 56 52
59 58 59 64 67 66 65 63 66 73 78 79 79 78 76 76 78 80 77 75 76 74 71 70 70 68 68 69 65 59 51 49 51 53 52 51 49 46 46 46 46 47 48 49 48 49 49 48 48 51 52 53 54 56 57 58 58 58 58 61 61 60 59 61 62 60 63 67 74 81 82 81 82 81 80 81 82 82 82 82 84 84 84 84 83 80 78 77 72 69 69 69 67 70 68 61 57
55 55 57 64 67 65 63 62 63 68 73 77 78 75 74 75 76 80 78 77 77 74 72 71 70 67 69 69 65 61 52 49 52 53 53 52 50 47 47 45 46 46 47 48 48 48 49 48 49 51 52 52 53 53 56 56 57 58 59 61 60 59 57 58 64 64 60 63 67 72 77 80 80 80 80 80 81 82 83 85 86 86 85 85 84 83 81 79 76 73 76 74 65 67 72 66 63
53 57 59 63 65 65 64 63 63 65 70 75 75 73 73 74 77 81 79 78 77 75 73 72 71 69 70 69 67 64 58 53 51 51 53 53 50 48 47 45 46 46 46 47 47 48 48 48 49 52 53 52 51 52 54 55 55 56 58 59 57 57 58 56 61 63 63 66 68 69 73 80 81 81 82 83 84 84 84 86 87 86 85 85 84 83 83 83 82 79 80 78 67 66 73 69 66
50 56 58 59 63 67 65 62 61 62 66 72 72 71 70 72 76 78 76 77 76 75 74 73 73 71 72 72 69 67 63 56 50 50 53 52 49 47 47 45 47 47 46 46 46 48 48 48 48 50 53 52 52 52 54 55 55 56 57 58 58 58 61 59 56 58 62 68 74 74 76 81 82 83 85 87 87 85 86 86 86 86 84 84 84 83 84 84 84 83 81 79 70 68 71 68 64
45 50 54 57 61 64 62 59 58 57 60 64 66 68 68 68 70 71 73 75 74 74 74 75 74 74 76 74 71 67 64 59 51 52 53 51 48 46 46 46 47 48 47 45 45 47 48 48 48 49 51 53 52 52 54 57 58 57 58 59 61 62 64 65 61 60 63 69 74 75 79 82 82 85 86 86 87 87 88 86 85 85 83 82 82 83 84 82 81 81 80 78 72 70 69 66 62
43 46 50 53 55 56 55 54 54 54 54 55 57 62 65 66 67 67 69 71 72 72 73 76 75 74 76 75 73 68 64 59 53 53 53 52 49 48 48 47 47 48 47 46 46 47 49 49 48 50 51 51 51 51 52 56 60 60 60 62 63 63 66 70 69 70 70 70 74 73 77 81 81 84 86 86 88 89 88 86 84 83 82 80 79 82 84 82 79 78 78 77 71 70 67 64 60
42 45 48 48 49 49 47 48 49 48 47 48 49 52 58 62 64 65 67 69 69 71 73 77 76 74 75 73 70 66 63 60 54 53 55 54 52 50 49 48 48 48 47 48 49 48 49 49 48 49 50 50 50 50 50 53 58 61 65 68 69 67 68 71 73 76 74 74 76 75 76 79 81 82 86 86 86 88 87 85 84 83 83 79 78 82 82 79 77 76 74 72 69 68 62 58 55
42 45 48 47 47 44 41 42 44 43 41 42 46 47 53 55 58 63 68 70 71 72 72 74 74 74 74 70 67 65 64 61 54 53 56 56 54 53 52 51 49 48 48 49 49 48 48 48 48 48 48 49 50 51 50 51 56 60 65 69 71 72 72 73 75 78 79 79 79 78 77 79 80 79 83 86 85 87 86 86 85 85 84 78 79 82 79 76 74 71 69 68 66 62 57 53 50
41 45 45 44 44 41 39 39 38 39 38 40 44 45 49 49 51 59 66 71 72 73 72 72 73 75 76 72 68 66 65 62 55 53 56 56 55 54 53 53 52 50 49 49 48 48 48 48 47 47 47 48 49 50 49 50 54 58 62 65 68 71 72 74 76 78 80 81 80 80 81 80 81 79 82 85 85 86 86 87 86 83 82 80 81 82 78 75 72 68 67 66 63 58 54 48 43
39 42 41 42 43 38 36 37 35 35 35 40 42 41 44 45 47 52 60 68 71 74 73 71 73 74 76 75 70 66 66 63 57 56 57 57 55 54 54 54 53 53 51 49 48 46 47 47 45 45 46 47 47 47 48 50 53 56 59 62 67 69 70 72 74 76 77 78 79 80 81 82 84 82 81 85 85 85 85 86 85 80 80 81 82 82 77 73 69 68 66 64 60 54 46 39 38
37 37 38 41 40 36 34 32 31 31 33 39 41 39 40 40 42 45 53 63 67 71 73 72 73 72 75 77 70 65 67 63 60 60 59 58 56 53 54 54 53 52 51 50 47 44 44 43 44 43 44 45 46 46 48 52 55 56 58 62 67 71 73 75 76 77 77 78 80 80 81 82 85 84 82 85 85 83 84 84 83 79 79 81 81 78 74 69 67 66 64 60 53 44 37 36 37
33 33 36 38 37 35 32 31 30 30 32 36 39 39 38 37 40 42 47 56 62 67 68 69 72 72 73 73 68 66 67 65 63 63 61 59 57 55 54 53 51 51 52 51 48 45 43 43 42 43 42 44 46 47 50 53 55 57 59 65 71 75 78 79 80 82 82 83 83 83 83 83 84 84 83 83 84 83 83 83 80 77 78 80 78 74 70 66 65 62 58 51 42 35 33 36 37
29 31 33 34 35 35 34 33 32 32 34 36 38 40 38 38 40 41 44 51 55 57 61 66 70 72 72 71 70 69 67 68 66 63 62 60 58 58 56 54 54 54 52 52 50 47 45 45 44 43 44 44 47 49 52 54 56 58 62 69 76 78 81 83 83 84 86 86 88 87 87 86 83 82 82 82 84 83 80 79 78 75 75 75 74 70 66 63 61 55 47 38 31 29 32 36 37
26 29 30 31 33 34 35 36 35 34 35 38 39 38 36 40 42 40 41 45 46 48 53 61 67 69 70 72 73 69 67 68 67 64 63 63 61 60 59 57 57 56 54 53 52 49 47 47 46 45 45 45 47 49 52 55 58 61 65 73 79 81 83 85 85 86 89 90 91 91 90 89 83 81 82 82 84 82 77 77 76 73 73 72 69 65 61 58 55 45 35 28 26 29 35 39 40
25 29 31 32 32 34 36 37 37 36 36 38 38 36 36 40 43 42 43 42 42 45 48 55 63 66 68 71 72 69 67 68 68 67 66 66 65 62 61 58 58 58 57 55 54 51 48 50 50 49 47 47 47 49 52 55 59 62 67 74 79 83 85 85 86 86 89 90 92 93 91 89 85 82 81 83 84 80 77 77 74 72 71 67 62 59 56 52 47 37 27 23 25 32 39 41 43
25 27 32 35 34 34 36 38 38 37 37 38 38 39 37 37 41 43 45 43 42 44 47 51 59 64 68 70 72 71 70 69 70 70 70 70 69 67 65 62 61 61 61 60 58 53 51 55 56 54 52 50 47 48 52 55 59 63 68 74 78 82 86 85 84 86 88 89 90 91 90 88 86 82 80 82 81 79 79 77 72 70 67 62 59 57 50 45 39 29 23 23 29 37 42 43 46
22 23 29 34 35 34 36 39 41 39 38 38 40 41 39 38 41 41 41 41 43 46 47 50 55 61 67 69 71 72 71 71 71 73 73 73 71 70 69 66 64 64 65 64 62 57 54 58 61 58 56 54 49 48 51 54 57 63 69 73 76 80 85 85 85 87 89 88 88 91 90 87 85 82 80 82 79 77 77 74 70 66 62 60 58 53 44 38 32 24 23 28 34 40 44 47 48
17 20 28 34 36 36 38 41 42 42 39 38 41 42 41 40 41 40 37 38 44 47 49 51 54 58 64 68 71 72 72 72 73 75 74 74 73 72 74 72 68 67 67 67 67 62 57 58 60 60 58 57 54 50 50 54 57 61 67 71 73 78 82 83 86 89 88 87 88 89 89 88 84 81 81 82 79 76 74 70 66 61 59 57 54 46 37 30 24 22 26 32 37 42 46 49 50
17 22 28 32 36 38 40 42 43 44 40 38 40 40 40 41 42 39 36 37 41 46 51 55 57 57 60 65 69 71 73 74 74 73 73 74 73 74 75 75 72 69 67 68 69 66 62 60 60 61 59 57 57 52 50 53 56 59 64 68 72 77 80 82 88 89 85 86 87 87 87 85 82 81 82 81 78 75 72 67 62 57 56 53 46 37 29 23 22 24 31 36 41 44 46 50 51
18 23 28 33 38 39 39 40 41 42 39 38 38 38 39 43 42 36 34 36 39 43 48 55 58 58 58 61 65 69 71 74 74 74 74 73 73 74 76 75 74 70 68 68 68 68 67 64 63 63 62 58 58 55 50 51 55 58 62 66 70 75 77 81 86 87 83 84 85 85 84 80 80 81 81 79 76 74 69 64 58 54 52 46 38 31 24 23 25 30 36 42 47 47 47 51 51
19 22 28 34 35 37 38 36 37 39 39 38 37 36 39 43 41 35 35 36 37 43 47 52 58 60 60 60 62 64 66 68 71 72 73 73 73 75 76 76 75 72 70 70 69 71 71 69 66 65 63 61 59 57 51 50 54 58 59 63 69 72 75 79 82 82 81 82 83 83 80 77 79 80 78 75 74 71 65 59 54 52 47 39 32 27 24 28 34 39 46 51 53 51 52 53 50
18 19 27 32 31 35 36 33 34 36 38 38 36 37 36 39 39 36 37 36 36 42 46 51 56 59 60 62 63 63 63 64 66 67 68 72 74 75 76 75 74 72 72 72 72 74 74 72 69 66 64 62 60 57 53 50 52 57 58 62 68 70 74 77 78 79 78 80 81 79 76 76 78 78 74 72 71 67 59 53 51 50 44 35 28 27 31 38 45 49 54 58 58 57 58 55 50
20 19 24 27 28 35 33 30 33 33 38 39 36 39 37 35 38 36 38 40 38 39 43 48 53 55 57 62 65 63 61 60 61 62 64 67 69 71 72 72 73 72 72 73 75 75 76 74 71 69 67 64 61 59 56 51 50 55 57 59 65 69 72 75 76 76 77 78 79 77 74 76 77 74 72 70 68 62 53 50 49 46 41 33 28 33 42 50 55 57 58 60 60 61 61 57 52
23 20 20 22 26 31 28 27 32 31 37 41 37 39 37 33 35 37 40 42 41 40 41 45 49 51 53 58 62 61 59 57 56 58 61 63 65 67 69 70 73 74 73 74 76 76 74 74 71 71 70 67 63 60 58 54 50 53 56 57 62 66 69 73 75 74 75 76 76 74 72 73 74 72 71 68 64 58 52 50 46 42 39 33 33 42 49 55 59 59 59 59 61 61 61 58 53
22 20 19 22 24 25 23 25 31 31 35 40 41 41 36 33 34 37 41 43 44 44 42 42 45 48 49 52 54 55 56 55 54 56 58 60 63 64 65 68 71 75 77 75 74 74 73 73 71 71 72 70 66 64 61 57 52 51 54 56 58 64 68 72 73 72 72 74 73 71 70 70 70 69 68 65 61 57 53 50 45 41 38 34 38 47 53 56 59 59 60 60 61 60 58 56 53
19 19 19 22 24 22 22 24 28 31 32 37 42 42 38 36 36 36 39 43 46 47 46 43 43 46 49 49 49 51 52 53 54 55 56 58 60 61 62 64 67 72 77 78 74 72 70 70 70 70 72 72 70 67 64 61 56 52 52 55 56 61 67 70 71 70 70 71 70 68 68 68 67 66 65 62 60 55 52 50 46 41 37 36 43 51 54 57 59 59 59 60 61 60 57 55 53
19 19 18 21 21 20 21 24 28 29 30 36 41 41 38 35 36 37 37 43 47 49 50 45 43 46 49 50 50 51 50 51 53 54 54 55 56 57 58 61 64 67 73 79 77 71 68 67 67 69 71 72 71 70 68 64 60 55 52 53 55 58 65 69 70 69 68 68 68 68 67 67 65 64 63 62 59 54 52 51 45 41 38 38 47 54 57 59 59 58 57 58 60 58 56 54 53
17 17 20 21 20 19 18 21 27 28 28 34 38 39 38 35 35 36 36 42 48 51 53 50 47 48 50 51 51 50 50 51 53 52 51 51 53 54 55 57 62 65 68 76 79 75 71 66 64 66 68 71 71 69 68 64 61 58 53 51 53 56 61 66 68 68 67 67 68 68 68 67 64 63 63 62 59 54 54 52 45 41 40 41 50 55 58 60 59 57 58 59 59 58 56 53 50
16 18 20 20 19 19 17 18 25 29 27 32 37 37 36 33 33 36 39 44 47 49 52 52 51 52 53 52 51 50 50 52 53 51 49 50 51 54 56 56 60 65 66 71 77 77 74 67 62 63 64 67 70 69 68 64 61 61 58 52 51 54 58 62 65 66 66 65 66 68 67 66 64 63 63 60 59 57 57 53 44 42 44 47 53 55 57 59 57 56 58 60 60 58 55 53 50
16 19 19 19 18 17 19 22 27 29 27 30 37 36 33 33 35 38 41 44 45 47 49 50 51 52 54 54 53 51 51 52 52 50 50 51 52 55 60 59 58 64 67 69 74 76 73 70 66 63 62 63 67 68 66 64 61 62 63 57 52 53 56 59 63 65 66 65 64 65 66 66 63 62 61 58 59 60 58 54 45 42 47 53 55 55 56 57 55 56 58 59 59 57 53 53 51
16 19 19 18 17 16 18 23 28 28 27 30 35 34 34 35 36 39 41 42 44 45 47 48 48 50 51 51 53 53 53 54 54 53 53 54 54 54 57 59 59 65 68 68 72 75 72 70 68 66 63 62 64 66 65 64 62 61 63 61 55 53 54 57 60 63 65 65 64 64 64 65 63 62 60 58 58 59 57 54 45 39 45 53 55 53 55 57 55 55 58 59 58 56 52 51 51
17 18 18 16 16 16 17 21 27 27 27 32 34 33 34 34 34 37 41 43 44 46 46 45 46 47 48 49 51 53 53 55 56 57 56 56 57 55 55 57 59 66 71 71 72 74 72 69 66 66 65 63 65 67 66 65 65 62 61 61 59 55 53 56 57 59 62 64 64 64 64 64 64 62 61 59 58 58 55 50 42 36 40 50 52 51 53 57 56 55 59 60 58 56 53 50 49
16 15 16 16 15 16 17 23 28 29 30 32 32 30 33 36 36 38 43 45 46 47 47 46 45 46 47 48 49 51 52 55 57 58 58 58 58 57 57 58 58 62 69 71 70 71 72 68 63 64 65 63 64 65 65 64 64 63 60 59 60 57 54 55 56 56 57 60 62 64 66 67 65 64 63 59 57 57 54 48 41 34 36 46 50 51 53 56 58 59 59 58 58 58 54 50 49
16 16 15 16 15 16 21 27 28 31 33 32 31 30 31 36 38 42 46 48 48 48 48 47 46 45 46 46 48 49 51 53 54 56 58 58 59 58 57 57 56 58 63 66 65 66 69 69 64 64 64 63 61 61 61 61 62 64 62 58 57 56 54 54 55 55 55 56 60 63 67 69 67 64 61 58 56 56 54 50 44 35 35 43 48 50 52 56 60 61 60 58 57 59 57 52 50
17 16 15 16 16 16 24 27 28 32 32 31 35 34 33 36 38 43 48 47 47 48 47 47 47 46 46 47 47 49 50 51 51 53 55 56 58 59 58 57 57 57 58 60 60 61 65 67 66 65 63 62 62 60 60 60 61 62 63 60 58 56 54 53 54 55 55 56 57 61 65 67 66 64 60 56 55 54 53 52 47 40 37 42 46 48 50 55 61 61 61 60 57 58 58 54 52
16 16 16 17 17 20 25 25 28 33 29 30 37 35 35 40 40 45 46 44 46 46 45 47 47 47 47 47 48 49 50 51 52 52 53 54 56 59 60 58 57 55 55 57 58 58 59 61 63 64 63 62 62 62 62 62 61 61 62 61 60 59 57 55 55 55 55 55 56 58 62 64 63 62 60 57 56 55 54 53 51 44 40 42 46 47 48 53 59 61 62 62 58 57 59 56 55
15 16 19 20 21 25 27 26 29 33 31 33 37 35 35 40 42 44 45 44 45 45 45 47 46 46 46 47 49 49 50 51 52 52 53 55 56 58 59 57 56 54 53 54 56 57 56 58 59 61 61 59 59 62 64 65 64 62 62 61 61 62 61 58 57 57 56 55 56 57 59 61 61 60 60 59 58 57 55 53 52 49 43 43 47 47 48 52 57 61 63 63 60 58 59 59 57
15 17 19 21 24 27 30 33 32 31 35 35 35 36 35 37 42 45 44 44 46 43 45 47 47 45 44 45 47 49 51 51 51 51 52 55 58 59 59 56 55 53 52 53 53 54 55 55 56 56 56 55 55 59 63 64 65 63 62 62 63 64 64 62 60 60 59 57 56 57 58 59 60 60 60 60 60 61 58 53 51 51 47 45 47 47 47 51 56 60 63 63 61 58 59 59 57
16 18 20 20 24 26 30 36 32 31 37 37 36 38 35 36 41 44 43 45 46 45 46 47 47 46 43 43 45 46 49 50 49 50 51 53 55 56 56 55 53 53 52 52 52 53 53 53 53 53 53 52 53 55 57 59 61 62 62 61 63 65 65 65 62 61 62 60 58 57 58 58 59 61 61 61 60 61 61 56 50 50 48 44 44 44 45 49 53 58 62 63 62 59 58 58 56
17 19 22 21 23 24 28 35 34 33 36 35 36 37 35 37 38 38 41 41 42 45 45 45 45 43 41 41 42 44 46 47 47 48 49 49 50 52 53 53 52 52 52 52 52 52 51 50 51 50 51 50 50 52 55 56 58 60 61 61 63 69 69 68 66 62 61 62 61 58 57 57 59 61 62 62 61 60 60 57 52 49 46 41 41 40 42 47 51 56 60 62 62 59 58 57 55
18 20 22 22 24 24 29 39 35 31 33 34 37 37 36 37 35 36 40 39 39 40 40 40 39 40 42 43 42 43 44 44 44 45 46 47 49 50 51 52 52 52 52 52 53 53 52 51 51 51 51 50 49 52 57 60 60 61 64 64 64 70 73 70 68 65 61 60 61 60 57 56 57 60 62 62 62 60 57 56 53 49 45 42 39 38 40 44 48 53 58 60 60 59 57 56 55
20 22 21 21 26 24 27 35 31 29 35 37 37 36 35 35 33 36 39 38 39 39 37 37 38 40 43 43 43 43 42 42 43 44 46 47 49 50 51 52 53 52 51 52 53 53 53 53 52 52 52 50 49 51 55 59 60 62 65 67 65 69 73 72 68 69 67 62 59 59 58 56 56 58 61 61 60 58 55 53 52 49 46 44 40 38 40 43 45 48 54 56 56 57 56 55 53
19 21 19 19 24 24 26 30 31 33 36 37 36 34 36 35 33 38 41 40 41 41 39 40 40 42 43 42 42 41 41 43 43 44 46 47 48 50 52 53 52 52 51 53 54 54 54 54 54 53 52 52 50 50 53 57 59 61 65 69 68 69 74 76 72 71 72 68 62 60 60 58 56 57 60 61 59 57 54 51 49 47 46 46 43 40 41 44 44 45 48 50 50 52 54 53 52
20 20 19 20 22 25 28 29 33 35 33 35 36 34 36 36 33 38 42 39 40 42 42 42 42 43 42 41 40 39 41 43 44 45 46 47 48 51 53 54 52 52 52 52 54 54 54 53 52 51 52 52 51 50 52 57 62 64 66 70 70 69 73 79 76 72 73 74 69 63 62 61 60 59 60 61 60 58 55 50 46 45 45 46 45 44 43 45 45 44 45 46 46 48 49 49 49
21 20 21 21 21 24 27 28 35 36 34 38 38 36 40 38 34 37 40 38 40 43 44 43 41 41 39 39 38 38 40 42 45 47 47 48 50 51 54 53 52 53 53 54 54 53 52 50 49 48 50 50 50 49 50 56 64 67 69 70 70 70 75 80 80 77 75 76 73 68 64 63 63 62 62 63 62 60 57 53 46 43 44 46 46 46 46 47 46 45 44 43 43 45 45 45 45
21 21 21 21 21 24 24 28 34 33 37 44 43 39 42 39 36 36 36 38 40 40 43 42 41 40 39 38 38 38 38 40 44 47 48 49 50 51 52 52 52 53 54 56 56 53 50 48 47 48 50 51 51 49 49 55 65 69 70 71 71 71 75 81 83 81 79 77 75 72 69 65 65 64 64 64 65 63 60 56 49 43 42 44 47 47 48 49 49 49 46 44 43 43 43 43 43
21 21 21 21 24 25 24 26 30 30 39 49 44 40 40 38 38 37 34 38 40 39 41 40 40 39 36 36 37 38 37 37 40 45 48 49 50 50 50 51 53 56 57 59 57 53 51 50 50 50 51 51 48 47 48 54 64 69 70 70 70 70 73 79 84 84 81 79 77 74 72 69 66 65 65 64 66 66 63 59 54 46 41 41 44 46 48 49 50 52 51 49 46 44 43 43 42
22 22 22 23 24 25 24 25 28 31 42 51 45 41 39 36 37 37 33 36 39 39 39 39 40 37 33 33 34 36 36 35 38 43 47 49 48 49 49 50 55 58 58 58 56 53 53 53 53 52 51 49 45 45 47 53 62 69 71 70 69 70 72 77 82 86 87 84 80 76 73 72 68 66 68 66 66 68 66 62 58 52 46 42 42 44 47 49 49 51 53 53 51 49 47 46 45
23 23 24 25 25 25 27 29 30 32 38 45 42 38 36 36 38 38 34 36 39 38 38 39 40 36 33 33 33 34 34 35 37 41 45 47 47 48 49 51 54 55 53 54 54 54 55 55 54 52 50 46 44 46 50 55 63 69 72 71 71 71 72 72 76 84 88 87 84 79 76 75 71 67 68 69 69 69 69 66 62 58 52 46 43 43 45 47 48 49 52 53 54 54 52 51 49